Regional Weather Roundup
Issued by NWS

Home | Current Version | Previous Version | Text Only | Print | Product List | Glossary On
Versions: 1 2 3 4 5 6 7 8 9 10 11 12 13 14 15 16 17 18 19 20 21 22 23 24 25 26 27 28 29 30 31 32 33 34 35 36 37 38 39 40 41 42 43 44 45 46 47 48 49 50
000
ASUS43 KLMK 010810
RWRKY
KENTUCKY REGIONAL WEATHER ROUNDUP
NATIONAL WEATHER SERVICE LOUISVILLE KY
400 AM EDT MON SEP 01 2014

NOTE "FAIR" INDICATES FEW OR NO CLOUDS BELOW 12,000 FEET
WITH NO SIGNIFICANT WEATHER AND/OR OBSTRUCTIONS TO VISIBILITY.

KYZ001>023-026-027-061>063-070>075-010900-
WESTERN AND SOUTH CENTRAL KENTUCKY

CITY           SKY/WX    TMP DP  RH WIND       PRES   REMARKS
PADUCAH        CLEAR     76  72  87 S7        29.97S
HENDERSON      CLEAR     73  70  88 S8        29.97S
OWENSBORO      NOT AVBL
HOPKINSVILLE   CLEAR     73  73 100 S5        30.03R
BOWLING GREEN  CLEAR     73  70  90 S5        30.04R
GLASGOW        CLEAR     71  71 100 CALM      30.05R
$$

KYZ024-025-028>034-038-045-046-053-010900-
NORTH CENTRAL KENTUCKY

CITY           SKY/WX    TMP DP  RH WIND       PRES   REMARKS
LOUISVILLE/SDF MOCLDY    75  71  87 S7        30.01R
LOUISVILLE/LOU MOCLDY    74  72  93 S5        30.02R
FORT KNOX      CLOUDY    72  72 100 S6        30.01S
$$

KYZ035>037-039>044-047>052-055>060-089>105-010900-
NORTHEAST KENTUCKY

CITY           SKY/WX    TMP DP  RH WIND       PRES   REMARKS
LEXINGTON      CLOUDY    75  71  87 S8        30.05S
COVINGTON      CLOUDY    73  71  93 SW3       30.01S
FRANKFORT      CLOUDY    73  72  96 SW7       30.02S
$$

KYZ054-064>069-076>088-106>120-010900-
SOUTHEAST KENTUCKY

CITY           SKY/WX    TMP DP  RH WIND       PRES   REMARKS
JACKSON        CLOUDY    71  69  93 CALM      30.09R
LONDON         CLEAR     72  68  87 S5        30.10R
SOMERSET       PTCLDY    70  70 100 S3        30.10R
MIDDLESBORO    CLOUDY    68  68 100 CALM      30.12S
MONTICELLO     SUNNY     70  69  96 SW3       30.10R
$$



USA.gov is the U.S. government's official web portal to all federal, state and local government web resources and services.